Time,TemperatureF,DewpointF,PressureIn,WindDirection,WindDirectionDegrees,WindSpeedMPH,WindSpeedGustMPH,Humidity,HourlyPrecipIn,Conditions,Clouds,dailyrainin,SoftwareType,DateUTC
2013-01-15 00:01:00,39.1,37.0,30.25,NNW,339,0.0,0.0,92,0.00,,,0.07,oem by Ross Wheeler,2013-01-15 05:01:00,
2013-01-15 00:05:00,39.1,37.0,30.25,NNW,339,0.0,0.0,92,0.00,,,0.00,oem by Ross Wheeler,2013-01-15 05:05:00,
2013-01-15 00:10:00,39.1,37.0,30.25,NNW,339,0.0,0.0,93,0.00,,,0.00,oem by Ross Wheeler,2013-01-15 05:10:00,
2013-01-15 00:15:00,39.1,37.0,30.25,NNW,339,0.0,0.0,93,0.00,,,0.00,oem by Ross Wheeler,2013-01-15 05:15:00,
2013-01-15 00:25:00,39.1,37.0,30.25,NNW,339,0.0,0.0,93,0.00,,,0.00,oem by Ross Wheeler,2013-01-15 05:25:00,
2013-01-15 00:30:00,39.1,37.0,30.25,NNW,339,0.0,0.0,93,0.00,,,0.01,oem by Ross Wheeler,2013-01-15 05:30:00,
2013-01-15 00:40:00,39.1,38.0,30.24,NNW,339,0.0,0.0,94,0.00,,,0.02,oem by Ross Wheeler,2013-01-15 05:40:00,
2013-01-15 00:45:00,39.0,38.0,30.24,NNW,339,1.0,0.0,94,0.00,,,0.02,oem by Ross Wheeler,2013-01-15 05:45:00,
2013-01-15 00:50:00,39.1,38.0,30.24,NNW,343,1.0,0.0,94,0.00,,,0.02,oem by Ross Wheeler,2013-01-15 05:50:00,
2013-01-15 00:55:00,39.1,38.0,30.24,NNW,342,0.0,0.0,94,0.00,,,0.03,oem by Ross Wheeler,2013-01-15 05:55:00,
2013-01-15 01:00:00,39.1,38.0,30.24,NNE,15,2.0,0.0,94,0.00,,,0.03,oem by Ross Wheeler,2013-01-15 06:00:00,
2013-01-15 01:10:00,38.8,37.0,30.23,NNE,17,1.0,0.0,94,0.00,,,0.04,oem by Ross Wheeler,2013-01-15 06:10:00,
2013-01-15 01:15:00,38.7,37.0,30.23,NNE,17,0.0,0.0,94,0.00,,,0.04,oem by Ross Wheeler,2013-01-15 06:15:00,
2013-01-15 01:25:00,38.5,37.0,30.23,ENE,73,0.0,0.0,94,0.00,,,0.05,oem by Ross Wheeler,2013-01-15 06:25:00,
2013-01-15 01:30:00,38.4,37.0,30.23,NE,37,3.0,0.0,94,0.00,,,0.05,oem by Ross Wheeler,2013-01-15 06:30:00,
2013-01-15 01:40:00,38.1,37.0,30.23,NE,41,1.0,0.0,94,0.00,,,0.06,oem by Ross Wheeler,2013-01-15 06:40:00,
2013-01-15 01:45:00,38.0,37.0,30.23,NE,41,2.0,0.0,94,0.00,,,0.06,oem by Ross Wheeler,2013-01-15 06:45:00,
2013-01-15 01:55:00,37.7,36.0,30.25,NE,41,0.0,0.0,94,0.00,,,0.07,oem by Ross Wheeler,2013-01-15 06:55:00,
2013-01-15 02:00:00,37.5,36.0,30.25,NE,37,0.0,0.0,94,0.00,,,0.07,oem by Ross Wheeler,2013-01-15 07:00:00,
2013-01-15 02:10:00,37.4,36.0,30.24,NE,37,0.0,0.0,94,0.00,,,0.07,oem by Ross Wheeler,2013-01-15 07:10:00,
2013-01-15 02:15:00,37.2,36.0,30.24,NE,38,2.0,0.0,94,0.00,,,0.08,oem by Ross Wheeler,2013-01-15 07:15:00,
2013-01-15 02:25:00,37.2,36.0,30.25,NNE,31,1.0,0.0,94,0.00,,,0.08,oem by Ross Wheeler,2013-01-15 07:25:00,
2013-01-15 02:30:00,37.2,36.0,30.25,NE,45,1.0,0.0,94,0.00,,,0.08,oem by Ross Wheeler,2013-01-15 07:30:00,
2013-01-15 02:40:00,37.2,36.0,30.23,NE,45,0.0,0.0,94,0.00,,,0.09,oem by Ross Wheeler,2013-01-15 07:40:00,
2013-01-15 02:45:00,37.2,36.0,30.23,NE,45,0.0,0.0,94,0.00,,,0.10,oem by Ross Wheeler,2013-01-15 07:45:00,
2013-01-15 02:55:00,37.0,36.0,30.23,NE,45,1.0,0.0,94,0.00,,,0.10,oem by Ross Wheeler,2013-01-15 07:55:00,
2013-01-15 03:00:00,36.8,35.0,30.23,NE,44,1.0,0.0,94,0.00,,,0.10,oem by Ross Wheeler,2013-01-15 08:00:00,
2013-01-15 03:10:00,36.7,35.0,30.21,ENE,71,1.0,0.0,94,0.00,,,0.10,oem by Ross Wheeler,2013-01-15 08:10:00,
2013-01-15 03:15:00,36.5,35.0,30.21,ENE,58,1.0,0.0,94,0.00,,,0.10,oem by Ross Wheeler,2013-01-15 08:15:00,
2013-01-15 03:25:00,36.4,35.0,30.20,NE,44,3.0,0.0,94,0.00,,,0.10,oem by Ross Wheeler,2013-01-15 08:25:00,
2013-01-15 03:30:00,36.4,35.0,30.20,NE,44,1.0,0.0,94,0.00,,,0.10,oem by Ross Wheeler,2013-01-15 08:30:00,
2013-01-15 03:40:00,36.0,35.0,30.20,NE,37,1.0,0.0,94,0.00,,,0.10,oem by Ross Wheeler,2013-01-15 08:40:00,
2013-01-15 03:45:00,36.0,35.0,30.20,NNE,32,3.0,0.0,94,0.00,,,0.10,oem by Ross Wheeler,2013-01-15 08:45:00,
2013-01-15 03:55:00,35.7,34.0,30.22,NNE,32,0.0,0.0,94,0.00,,,0.10,oem by Ross Wheeler,2013-01-15 08:55:00,
2013-01-15 04:00:00,35.7,34.0,30.22,NNE,32,0.0,0.0,94,0.00,,,0.10,oem by Ross Wheeler,2013-01-15 09:00:00,
2013-01-15 04:10:00,35.5,34.0,30.23,NE,34,0.0,0.0,93,0.00,,,0.10,oem by Ross Wheeler,2013-01-15 09:10:00,
2013-01-15 04:15:00,35.5,34.0,30.23,NE,34,0.0,0.0,94,0.00,,,0.10,oem by Ross Wheeler,2013-01-15 09:15:00,
2013-01-15 04:25:00,35.4,34.0,30.24,NE,35,1.0,0.0,93,0.00,,,0.10,oem by Ross Wheeler,2013-01-15 09:25:00,
2013-01-15 04:30:00,35.2,33.0,30.24,ESE,114,1.0,0.0,93,0.00,,,0.10,oem by Ross Wheeler,2013-01-15 09:30:00,
2013-01-15 04:40:00,35.1,33.0,30.21,North,4,1.0,0.0,93,0.00,,,0.10,oem by Ross Wheeler,2013-01-15 09:40:00,
2013-01-15 04:45:00,35.2,33.0,30.21,North,4,0.0,0.0,93,0.00,,,0.10,oem by Ross Wheeler,2013-01-15 09:45:00,
2013-01-15 04:55:00,35.2,33.0,30.23,North,4,0.0,0.0,93,0.00,,,0.10,oem by Ross Wheeler,2013-01-15 09:55:00,
2013-01-15 05:00:00,35.2,34.0,30.23,North,4,0.0,0.0,94,0.00,,,0.10,oem by Ross Wheeler,2013-01-15 10:00:00,
2013-01-15 05:10:00,35.2,34.0,30.22,North,4,0.0,0.0,94,0.00,,,0.10,oem by Ross Wheeler,2013-01-15 10:10:00,
2013-01-15 05:15:00,35.2,33.0,30.22,NE,38,0.0,0.0,93,0.00,,,0.10,oem by Ross Wheeler,2013-01-15 10:15:00,
2013-01-15 05:25:00,35.1,33.0,30.23,NE,38,0.0,0.0,93,0.00,,,0.10,oem by Ross Wheeler,2013-01-15 10:25:00,
2013-01-15 05:30:00,35.2,33.0,30.23,NE,38,0.0,0.0,93,0.00,,,0.10,oem by Ross Wheeler,2013-01-15 10:30:00,
2013-01-15 05:40:00,35.1,33.0,30.23,NE,38,0.0,0.0,93,0.00,,,0.10,oem by Ross Wheeler,2013-01-15 10:40:00,
2013-01-15 05:45:00,35.1,33.0,30.23,NE,38,0.0,0.0,93,0.00,,,0.10,oem by Ross Wheeler,2013-01-15 10:45:00,
2013-01-15 05:55:00,35.1,33.0,30.24,NE,38,0.0,0.0,93,0.00,,,0.10,oem by Ross Wheeler,2013-01-15 10:55:00,
2013-01-15 06:00:00,35.1,33.0,30.24,NE,38,0.0,0.0,93,0.00,,,0.10,oem by Ross Wheeler,2013-01-15 11:00:00,
2013-01-15 06:10:00,35.1,33.0,30.25,NE,38,0.0,0.0,93,0.00,,,0.10,oem by Ross Wheeler,2013-01-15 11:10:00,
2013-01-15 06:15:00,35.1,33.0,30.25,NE,38,1.0,0.0,93,0.00,,,0.10,oem by Ross Wheeler,2013-01-15 11:15:00,
2013-01-15 06:25:00,35.0,33.0,30.25,NE,38,0.0,0.0,93,0.00,,,0.10,oem by Ross Wheeler,2013-01-15 11:25:00,
2013-01-15 06:30:00,35.0,33.0,30.25,NE,38,1.0,0.0,92,0.00,,,0.10,oem by Ross Wheeler,2013-01-15 11:30:00,
2013-01-15 06:40:00,35.0,33.0,30.26,NE,52,1.0,0.0,92,0.00,,,0.10,oem by Ross Wheeler,2013-01-15 11:40:00,
2013-01-15 06:45:00,35.0,33.0,30.26,NE,34,2.0,0.0,92,0.00,,,0.10,oem by Ross Wheeler,2013-01-15 11:45:00,
2013-01-15 06:55:00,35.0,33.0,30.26,NE,34,0.0,0.0,91,0.00,,,0.10,oem by Ross Wheeler,2013-01-15 11:55:00,
2013-01-15 07:00:00,35.0,33.0,30.26,NE,45,1.0,0.0,91,0.00,,,0.10,oem by Ross Wheeler,2013-01-15 12:00:00,
2013-01-15 07:10:00,35.0,32.0,30.26,NE,45,2.0,0.0,90,0.00,,,0.10,oem by Ross Wheeler,2013-01-15 12:10:00,
2013-01-15 07:15:00,35.1,33.0,30.26,NNE,31,1.0,0.0,90,0.00,,,0.10,oem by Ross Wheeler,2013-01-15 12:15:00,
2013-01-15 07:25:00,35.0,32.0,30.27,NNE,31,0.0,0.0,89,0.00,,,0.10,oem by Ross Wheeler,2013-01-15 12:25:00,
2013-01-15 07:30:00,35.0,32.0,30.27,NNE,31,2.0,0.0,88,0.00,,,0.10,oem by Ross Wheeler,2013-01-15 12:30:00,
2013-01-15 07:40:00,35.0,32.0,30.27,NE,35,1.0,0.0,88,0.00,,,0.10,oem by Ross Wheeler,2013-01-15 12:40:00,
2013-01-15 07:45:00,35.1,31.0,30.27,NE,38,2.0,0.0,86,0.00,,,0.10,oem by Ross Wheeler,2013-01-15 12:45:00,
2013-01-15 07:55:00,35.1,31.0,30.28,NE,37,2.0,0.0,86,0.00,,,0.10,oem by Ross Wheeler,2013-01-15 12:55:00,
2013-01-15 08:00:00,35.2,31.0,30.28,NE,55,2.0,0.0,85,0.00,,,0.10,oem by Ross Wheeler,2013-01-15 13:00:00,
2013-01-15 08:10:00,35.4,31.0,30.29,NE,35,0.0,0.0,83,0.00,,,0.10,oem by Ross Wheeler,2013-01-15 13:10:00,
2013-01-15 08:15:00,35.4,31.0,30.29,NNE,17,0.0,0.0,83,0.00,,,0.10,oem by Ross Wheeler,2013-01-15 13:15:00,
2013-01-15 08:25:00,35.5,30.0,30.30,NNE,13,2.0,0.0,81,0.00,,,0.10,oem by Ross Wheeler,2013-01-15 13:25:00,
2013-01-15 08:30:00,35.5,30.0,30.30,NNE,27,0.0,0.0,80,0.00,,,0.10,oem by Ross Wheeler,2013-01-15 13:30:00,
2013-01-15 08:40:00,35.7,30.0,30.31,NNE,15,0.0,0.0,80,0.00,,,0.10,oem by Ross Wheeler,2013-01-15 13:40:00,
2013-01-15 08:45:00,35.8,30.0,30.31,North,8,0.0,0.0,80,0.00,,,0.10,oem by Ross Wheeler,2013-01-15 13:45:00,
2013-01-15 08:55:00,36.0,29.0,30.31,NNE,18,2.0,0.0,77,0.00,,,0.10,oem by Ross Wheeler,2013-01-15 13:55:00,
2013-01-15 09:00:00,36.0,30.0,30.31,North,8,1.0,0.0,78,0.00,,,0.10,oem by Ross Wheeler,2013-01-15 14:00:00,
2013-01-15 09:10:00,36.2,30.0,30.32,NNE,27,3.0,0.0,79,0.00,,,0.10,oem by Ross Wheeler,2013-01-15 14:10:00,
2013-01-15 09:15:00,36.2,29.0,30.32,NNE,30,3.0,0.0,76,0.00,,,0.10,oem by Ross Wheeler,2013-01-15 14:15:00,
2013-01-15 09:25:00,36.2,29.0,30.31,NNE,30,3.0,0.0,75,0.00,,,0.10,oem by Ross Wheeler,2013-01-15 14:25:00,
2013-01-15 09:30:00,36.4,29.0,30.31,NE,47,5.0,0.0,75,0.00,,,0.10,oem by Ross Wheeler,2013-01-15 14:30:00,
2013-01-15 09:40:00,36.5,29.0,30.31,NNE,18,3.0,0.0,75,0.00,,,0.10,oem by Ross Wheeler,2013-01-15 14:40:00,
2013-01-15 09:45:00,36.5,29.0,30.31,NE,39,5.0,0.0,75,0.00,,,0.10,oem by Ross Wheeler,2013-01-15 14:45:00,
2013-01-15 09:55:00,36.7,29.0,30.31,NNE,31,2.0,0.0,75,0.00,,,0.10,oem by Ross Wheeler,2013-01-15 14:55:00,
2013-01-15 10:00:00,36.7,29.0,30.31,NNE,32,1.0,0.0,74,0.00,,,0.10,oem by Ross Wheeler,2013-01-15 15:00:00,
2013-01-15 10:10:00,36.8,29.0,30.31,North,7,1.0,0.0,74,0.00,,,0.10,oem by Ross Wheeler,2013-01-15 15:10:00,
2013-01-15 10:15:00,37.0,29.0,30.31,NE,49,2.0,0.0,73,0.00,,,0.10,oem by Ross Wheeler,2013-01-15 15:15:00,
2013-01-15 10:25:00,37.0,29.0,30.31,NNE,15,2.0,0.0,72,0.00,,,0.11,oem by Ross Wheeler,2013-01-15 15:25:00,
2013-01-15 10:30:00,37.0,29.0,30.31,ENE,62,2.0,0.0,72,0.00,,,0.11,oem by Ross Wheeler,2013-01-15 15:30:00,
2013-01-15 10:40:00,37.2,29.0,30.32,NNE,17,0.0,0.0,72,0.00,,,0.11,oem by Ross Wheeler,2013-01-15 15:40:00,
2013-01-15 10:45:00,37.1,29.0,30.32,North,10,0.0,0.0,72,0.00,,,0.11,oem by Ross Wheeler,2013-01-15 15:45:00,
2013-01-15 10:55:00,37.2,29.0,30.32,NNE,15,2.0,0.0,72,0.00,,,0.11,oem by Ross Wheeler,2013-01-15 15:55:00,
2013-01-15 11:00:00,37.2,28.0,30.32,NE,48,1.0,0.0,70,0.00,,,0.11,oem by Ross Wheeler,2013-01-15 16:00:00,
2013-01-15 11:10:00,37.2,28.0,30.31,NNE,13,1.0,0.0,70,0.00,,,0.11,oem by Ross Wheeler,2013-01-15 16:10:00,
2013-01-15 11:15:00,37.4,29.0,30.31,NE,49,0.0,0.0,71,0.00,,,0.11,oem by Ross Wheeler,2013-01-15 16:15:00,
2013-01-15 11:25:00,37.4,28.0,30.30,NE,35,2.0,0.0,70,0.00,,,0.11,oem by Ross Wheeler,2013-01-15 16:25:00,
2013-01-15 11:30:00,37.4,28.0,30.30,NNE,30,1.0,0.0,70,0.00,,,0.11,oem by Ross Wheeler,2013-01-15 16:30:00,
2013-01-15 11:40:00,37.5,28.0,30.30,NE,37,1.0,0.0,69,0.00,,,0.11,oem by Ross Wheeler,2013-01-15 16:40:00,
2013-01-15 11:45:00,37.7,28.0,30.30,NE,37,0.0,0.0,69,0.00,,,0.11,oem by Ross Wheeler,2013-01-15 16:45:00,
2013-01-15 11:55:00,37.7,28.0,30.29,NE,37,0.0,0.0,68,0.00,,,0.11,oem by Ross Wheeler,2013-01-15 16:55:00,
2013-01-15 12:00:00,37.8,28.0,30.29,NE,37,2.0,0.0,67,0.00,,,0.11,oem by Ross Wheeler,2013-01-15 17:00:00,
2013-01-15 12:10:00,37.8,27.0,30.30,NNE,31,0.0,0.0,66,0.00,,,0.11,oem by Ross Wheeler,2013-01-15 17:10:00,
2013-01-15 12:15:00,37.8,28.0,30.30,NNE,31,0.0,0.0,67,0.00,,,0.11,oem by Ross Wheeler,2013-01-15 17:15:00,
2013-01-15 12:25:00,38.0,28.0,30.28,NNE,20,1.0,0.0,68,0.00,,,0.11,oem by Ross Wheeler,2013-01-15 17:25:00,
2013-01-15 12:30:00,38.0,28.0,30.28,NNE,25,3.0,0.0,67,0.00,,,0.11,oem by Ross Wheeler,2013-01-15 17:30:00,
2013-01-15 12:40:00,38.0,27.0,30.25,NE,35,1.0,0.0,66,0.00,,,0.11,oem by Ross Wheeler,2013-01-15 17:40:00,
2013-01-15 12:45:00,38.1,29.0,30.25,NE,38,2.0,0.0,69,0.00,,,0.11,oem by Ross Wheeler,2013-01-15 17:45:00,
2013-01-15 12:55:00,38.0,28.0,30.25,NE,49,2.0,0.0,67,0.00,,,0.11,oem by Ross Wheeler,2013-01-15 17:55:00,
2013-01-15 13:00:00,38.0,27.0,30.25,NE,37,0.0,0.0,65,0.00,,,0.11,oem by Ross Wheeler,2013-01-15 18:00:00,
2013-01-15 13:10:00,38.0,27.0,30.25,NNE,27,3.0,0.0,65,0.00,,,0.11,oem by Ross Wheeler,2013-01-15 18:10:00,
2013-01-15 13:15:00,38.0,27.0,30.25,NNE,31,1.0,0.0,66,0.00,,,0.11,oem by Ross Wheeler,2013-01-15 18:15:00,
2013-01-15 13:25:00,38.0,27.0,30.25,NE,54,1.0,0.0,64,0.00,,,0.11,oem by Ross Wheeler,2013-01-15 18:25:00,
2013-01-15 13:30:00,38.0,27.0,30.25,NE,41,1.0,0.0,65,0.00,,,0.11,oem by Ross Wheeler,2013-01-15 18:30:00,
2013-01-15 13:40:00,38.3,28.0,30.23,NE,41,0.0,0.0,67,0.00,,,0.11,oem by Ross Wheeler,2013-01-15 18:40:00,
2013-01-15 13:45:00,38.3,28.0,30.23,NE,41,0.0,0.0,67,0.00,,,0.11,oem by Ross Wheeler,2013-01-15 18:45:00,
2013-01-15 13:55:00,38.4,27.0,30.24,NE,39,2.0,0.0,65,0.00,,,0.11,oem by Ross Wheeler,2013-01-15 18:55:00,
2013-01-15 14:00:00,38.4,27.0,30.24,NE,48,0.0,0.0,65,0.00,,,0.11,oem by Ross Wheeler,2013-01-15 19:00:00,
2013-01-15 14:10:00,38.5,28.0,30.24,NE,48,0.0,0.0,66,0.00,,,0.11,oem by Ross Wheeler,2013-01-15 19:10:00,
2013-01-15 14:15:00,38.7,28.0,30.24,NE,48,0.0,0.0,66,0.00,,,0.11,oem by Ross Wheeler,2013-01-15 19:15:00,
2013-01-15 14:25:00,38.8,28.0,30.24,NNE,31,1.0,0.0,65,0.00,,,0.11,oem by Ross Wheeler,2013-01-15 19:25:00,
2013-01-15 14:30:00,38.8,28.0,30.24,NNE,31,0.0,0.0,66,0.00,,,0.11,oem by Ross Wheeler,2013-01-15 19:30:00,
2013-01-15 14:40:00,38.8,27.0,30.24,NNE,31,0.0,0.0,64,0.00,,,0.11,oem by Ross Wheeler,2013-01-15 19:40:00,
2013-01-15 14:45:00,39.0,28.0,30.24,NNE,31,0.0,0.0,65,0.00,,,0.11,oem by Ross Wheeler,2013-01-15 19:45:00,
2013-01-15 14:55:00,39.0,28.0,30.24,NE,41,0.0,0.0,65,0.00,,,0.11,oem by Ross Wheeler,2013-01-15 19:55:00,
2013-01-15 15:00:00,39.0,28.0,30.24,NE,37,1.0,0.0,65,0.00,,,0.11,oem by Ross Wheeler,2013-01-15 20:00:00,
2013-01-15 15:10:00,38.8,28.0,30.23,NE,41,1.0,0.0,65,0.00,,,0.11,oem by Ross Wheeler,2013-01-15 20:10:00,
2013-01-15 15:15:00,39.0,28.0,30.23,ENE,68,0.0,0.0,65,0.00,,,0.11,oem by Ross Wheeler,2013-01-15 20:15:00,
2013-01-15 15:25:00,38.8,27.0,30.24,NE,35,0.0,0.0,64,0.00,,,0.11,oem by Ross Wheeler,2013-01-15 20:25:00,
2013-01-15 15:30:00,39.0,28.0,30.24,NE,35,0.0,0.0,66,0.00,,,0.11,oem by Ross Wheeler,2013-01-15 20:30:00,
2013-01-15 15:40:00,39.0,28.0,30.24,NE,35,1.0,0.0,66,0.00,,,0.11,oem by Ross Wheeler,2013-01-15 20:40:00,
2013-01-15 15:45:00,39.0,28.0,30.24,NE,35,0.0,0.0,64,0.00,,,0.11,oem by Ross Wheeler,2013-01-15 20:45:00,
2013-01-15 15:55:00,38.8,28.0,30.24,NE,35,0.0,0.0,66,0.00,,,0.11,oem by Ross Wheeler,2013-01-15 20:55:00,
2013-01-15 16:00:00,38.8,28.0,30.24,NNE,25,0.0,0.0,66,0.00,,,0.11,oem by Ross Wheeler,2013-01-15 21:00:00,
2013-01-15 16:10:00,38.8,28.0,30.25,NNE,25,2.0,0.0,66,0.00,,,0.11,oem by Ross Wheeler,2013-01-15 21:10:00,
2013-01-15 16:15:00,38.7,28.0,30.25,NNE,15,1.0,0.0,65,0.00,,,0.11,oem by Ross Wheeler,2013-01-15 21:15:00,
2013-01-15 16:25:00,38.5,28.0,30.25,NE,44,2.0,0.0,65,0.00,,,0.11,oem by Ross Wheeler,2013-01-15 21:25:00,
2013-01-15 16:30:00,38.5,28.0,30.25,NE,44,1.0,0.0,66,0.00,,,0.11,oem by Ross Wheeler,2013-01-15 21:30:00,
2013-01-15 16:40:00,38.4,28.0,30.25,NE,37,0.0,0.0,66,0.00,,,0.11,oem by Ross Wheeler,2013-01-15 21:40:00,
2013-01-15 16:45:00,38.4,28.0,30.25,NE,37,2.0,0.0,66,0.00,,,0.11,oem by Ross Wheeler,2013-01-15 21:45:00,
2013-01-15 16:55:00,38.3,28.0,30.25,NE,37,0.0,0.0,66,0.00,,,0.11,oem by Ross Wheeler,2013-01-15 21:55:00,
2013-01-15 17:00:00,38.3,27.0,30.25,NE,37,2.0,0.0,65,0.00,,,0.11,oem by Ross Wheeler,2013-01-15 22:00:00,
2013-01-15 17:10:00,38.1,28.0,30.25,NE,37,0.0,0.0,66,0.00,,,0.11,oem by Ross Wheeler,2013-01-15 22:10:00,
2013-01-15 17:15:00,38.1,28.0,30.25,NE,37,0.0,0.0,66,0.00,,,0.11,oem by Ross Wheeler,2013-01-15 22:15:00,
2013-01-15 17:25:00,38.0,27.0,30.25,NE,39,2.0,0.0,66,0.00,,,0.11,oem by Ross Wheeler,2013-01-15 22:25:00,
2013-01-15 17:30:00,38.0,27.0,30.25,NNE,31,3.0,0.0,65,0.00,,,0.11,oem by Ross Wheeler,2013-01-15 22:30:00,
2013-01-15 17:40:00,37.8,27.0,30.24,NE,44,2.0,0.0,65,0.00,,,0.11,oem by Ross Wheeler,2013-01-15 22:40:00,
2013-01-15 17:45:00,37.8,28.0,30.24,NE,42,3.0,0.0,68,0.00,,,0.11,oem by Ross Wheeler,2013-01-15 22:45:00,
2013-01-15 17:55:00,37.8,27.0,30.24,NE,48,1.0,0.0,66,0.00,,,0.11,oem by Ross Wheeler,2013-01-15 22:55:00,
2013-01-15 18:00:00,37.8,27.0,30.24,NE,48,0.0,0.0,65,0.00,,,0.11,oem by Ross Wheeler,2013-01-15 23:00:00,
2013-01-15 18:10:00,37.8,28.0,30.25,NE,48,0.0,0.0,67,0.00,,,0.11,oem by Ross Wheeler,2013-01-15 23:10:00,
2013-01-15 18:15:00,37.7,28.0,30.25,NE,45,0.0,0.0,67,0.00,,,0.11,oem by Ross Wheeler,2013-01-15 23:15:00,
2013-01-15 18:25:00,37.7,28.0,30.24,NNE,30,1.0,0.0,68,0.00,,,0.11,oem by Ross Wheeler,2013-01-15 23:25:00,
2013-01-15 18:30:00,37.7,28.0,30.24,NNE,30,0.0,0.0,68,0.00,,,0.11,oem by Ross Wheeler,2013-01-15 23:30:00,
2013-01-15 18:40:00,37.5,28.0,30.24,NNE,30,0.0,0.0,69,0.00,,,0.11,oem by Ross Wheeler,2013-01-15 23:40:00,
2013-01-15 18:45:00,37.5,29.0,30.24,NNE,30,0.0,0.0,71,0.00,,,0.11,oem by Ross Wheeler,2013-01-15 23:45:00,
2013-01-15 18:55:00,37.5,29.0,30.25,NNE,30,0.0,0.0,71,0.00,,,0.11,oem by Ross Wheeler,2013-01-15 23:55:00,
2013-01-15 19:00:00,37.5,29.0,30.25,NNE,31,0.0,0.0,71,0.00,,,0.11,oem by Ross Wheeler,2013-01-16 00:00:00,
2013-01-15 19:10:00,37.5,29.0,30.26,NNE,30,0.0,0.0,71,0.00,,,0.11,oem by Ross Wheeler,2013-01-16 00:10:00,
2013-01-15 19:15:00,37.5,29.0,30.26,NNE,30,0.0,0.0,71,0.00,,,0.11,oem by Ross Wheeler,2013-01-16 00:15:00,
2013-01-15 19:25:00,37.4,29.0,30.27,NNE,30,0.0,0.0,71,0.00,,,0.11,oem by Ross Wheeler,2013-01-16 00:25:00,
2013-01-15 19:30:00,37.4,28.0,30.27,NNE,30,0.0,0.0,70,0.00,,,0.11,oem by Ross Wheeler,2013-01-16 00:30:00,
2013-01-15 19:40:00,37.4,29.0,30.24,NNE,30,0.0,0.0,72,0.00,,,0.11,oem by Ross Wheeler,2013-01-16 00:40:00,
2013-01-15 19:45:00,37.4,29.0,30.24,NNE,30,0.0,0.0,71,0.00,,,0.11,oem by Ross Wheeler,2013-01-16 00:45:00,
2013-01-15 19:55:00,37.4,28.0,30.24,NNE,30,0.0,0.0,70,0.00,,,0.11,oem by Ross Wheeler,2013-01-16 00:55:00,
2013-01-15 20:00:00,37.4,29.0,30.24,NNE,30,0.0,0.0,72,0.00,,,0.11,oem by Ross Wheeler,2013-01-16 01:00:00,
2013-01-15 20:10:00,37.4,28.0,30.24,NNE,30,0.0,0.0,70,0.00,,,0.11,oem by Ross Wheeler,2013-01-16 01:10:00,
2013-01-15 20:15:00,37.4,28.0,30.24,NNE,30,2.0,0.0,69,0.00,,,0.11,oem by Ross Wheeler,2013-01-16 01:15:00,
2013-01-15 20:25:00,37.4,28.0,30.24,NNE,30,0.0,0.0,69,0.00,,,0.11,oem by Ross Wheeler,2013-01-16 01:25:00,
2013-01-15 20:30:00,37.4,28.0,30.24,NNE,30,0.0,0.0,68,0.00,,,0.11,oem by Ross Wheeler,2013-01-16 01:30:00,
2013-01-15 20:40:00,37.5,28.0,30.24,NNE,30,2.0,0.0,68,0.00,,,0.11,oem by Ross Wheeler,2013-01-16 01:40:00,
2013-01-15 20:45:00,37.5,27.0,30.24,NNE,30,0.0,0.0,66,0.00,,,0.11,oem by Ross Wheeler,2013-01-16 01:45:00,
2013-01-15 20:55:00,37.5,27.0,30.24,NNE,30,3.0,0.0,66,0.00,,,0.11,oem by Ross Wheeler,2013-01-16 01:55:00,
2013-01-15 21:00:00,37.5,27.0,30.24,NNE,30,0.0,0.0,65,0.00,,,0.11,oem by Ross Wheeler,2013-01-16 02:00:00,
2013-01-15 21:10:00,37.5,27.0,30.24,NE,35,2.0,0.0,67,0.00,,,0.11,oem by Ross Wheeler,2013-01-16 02:10:00,
2013-01-15 21:15:00,37.5,27.0,30.24,NE,35,0.0,0.0,66,0.00,,,0.11,oem by Ross Wheeler,2013-01-16 02:15:00,
2013-01-15 21:25:00,37.5,27.0,30.23,NE,37,1.0,0.0,66,0.00,,,0.11,oem by Ross Wheeler,2013-01-16 02:25:00,
2013-01-15 21:30:00,37.5,27.0,30.23,NE,37,0.0,0.0,66,0.00,,,0.11,oem by Ross Wheeler,2013-01-16 02:30:00,
2013-01-15 21:40:00,37.5,27.0,30.22,NE,37,0.0,0.0,67,0.00,,,0.11,oem by Ross Wheeler,2013-01-16 02:40:00,
2013-01-15 21:45:00,37.5,27.0,30.22,NE,37,3.0,0.0,67,0.00,,,0.11,oem by Ross Wheeler,2013-01-16 02:45:00,
2013-01-15 21:55:00,37.5,28.0,30.21,NE,35,0.0,0.0,69,0.00,,,0.11,oem by Ross Wheeler,2013-01-16 02:55:00,
2013-01-15 22:00:00,37.5,28.0,30.21,NE,35,0.0,0.0,69,0.00,,,0.11,oem by Ross Wheeler,2013-01-16 03:00:00,
2013-01-15 22:10:00,37.4,28.0,30.20,NE,35,0.0,0.0,70,0.00,,,0.11,oem by Ross Wheeler,2013-01-16 03:10:00,
2013-01-15 22:15:00,37.4,29.0,30.20,NE,35,0.0,0.0,72,0.00,,,0.11,oem by Ross Wheeler,2013-01-16 03:15:00,
2013-01-15 22:25:00,37.2,29.0,30.21,NE,35,0.0,0.0,71,0.00,,,0.11,oem by Ross Wheeler,2013-01-16 03:25:00,
2013-01-15 22:30:00,37.2,29.0,30.21,NE,35,0.0,0.0,71,0.00,,,0.11,oem by Ross Wheeler,2013-01-16 03:30:00,
2013-01-15 22:40:00,37.2,29.0,30.20,NE,35,0.0,0.0,73,0.00,,,0.11,oem by Ross Wheeler,2013-01-16 03:40:00,
2013-01-15 22:45:00,37.2,30.0,30.20,NE,35,0.0,0.0,76,0.00,,,0.11,oem by Ross Wheeler,2013-01-16 03:45:00,
2013-01-15 22:55:00,37.1,32.0,30.20,NE,35,0.0,0.0,81,0.00,,,0.12,oem by Ross Wheeler,2013-01-16 03:55:00,
2013-01-15 23:00:00,37.0,32.0,30.20,NE,35,0.0,0.0,83,0.00,,,0.12,oem by Ross Wheeler,2013-01-16 04:00:00,
2013-01-15 23:10:00,36.7,32.0,30.21,NE,34,0.0,0.0,84,0.00,,,0.12,oem by Ross Wheeler,2013-01-16 04:10:00,
2013-01-15 23:15:00,36.5,32.0,30.21,NE,35,0.0,0.0,84,0.00,,,0.13,oem by Ross Wheeler,2013-01-16 04:15:00,
2013-01-15 23:25:00,36.2,32.0,30.21,NE,34,1.0,0.0,86,0.00,,,0.14,oem by Ross Wheeler,2013-01-16 04:25:00,
2013-01-15 23:30:00,36.1,32.0,30.21,NE,35,0.0,0.0,86,0.00,,,0.15,oem by Ross Wheeler,2013-01-16 04:30:00,
2013-01-15 23:40:00,35.7,32.0,30.19,NE,35,1.0,0.0,87,0.00,,,0.16,oem by Ross Wheeler,2013-01-16 04:40:00,
2013-01-15 23:45:00,35.5,32.0,30.19,NE,35,0.0,0.0,88,0.00,,,0.16,oem by Ross Wheeler,2013-01-16 04:45:00,
2013-01-15 23:55:00,35.4,32.0,30.19,NE,35,0.0,0.0,88,0.00,,,0.17,oem by Ross Wheeler,2013-01-16 04:55:00,